Location: *
(47.7167°N, 1.7333°W)
Time: 23:22:12
(UTC+00:00)

Cosmos 2333 Rocket - Pass Details

Date: 09 April 2020
Orbit: 841 x 861 km, 70.8° (Epoch: 30 May)

Event Time Altitude Azimuth Distance (km) Brightness Sun altitude
Rises 23:34:46 0° 336° (NNW) 3,407 6.4 -33.8°
Reaches altitude 10° 23:37:34 10° 348° (NNW) 2,470 5.4 -33.8°
Maximum altitude 23:42:25 28° 47° (NE) 1,530 3.7 -34.0°
Enters shadow 23:42:32 28° 50° (NE) 1,530 3.7 -34.0°
